Location: Unspecified
(48.2082°N, 0.0000°E)
Time: 02:32:06
(UTC+00:00)

A-11 Canister half - Pass Details

Date: 29 June 2019
Orbit: 1515 x 1685 km, 47.2° (Epoch: 15 July)

Event Time Altitude Azimuth Distance (km) Brightness Sun altitude
Rises 17:07:10 0° 283° (WNW) 4,776 12.9 26.3°
Reaches altitude 10° 17:14:31 10° 246° (WSW) 3,734 12.1 25.1°
Maximum altitude 17:15:39 10° 239° (WSW) 3,705 11.9 24.9°
Drops below altitude 10° 17:16:47 10° 232° (SW) 3,718 11.8 24.7°
Sets 17:24:01 0° 195° (SSW) 4,659 11.6 23.5°
